.
WxDataArchive / Data Records for 2006-05-15
2006-05-14 May 2006 2006-05-16

Data Records for Monday, 15 May 2006

Time	Temp	Chill	HIndex	Humid	Dewpt	 Wind 	HiWind	WindDir	Rain 	Barom 
-----	----	-----	------	-----	-----	------	------	-------	-----	----- 
00:00	50.2	50.2	50.2	95	48.8	0	2	248	0.00	29.806 
00:05	50.2	50.2	50.2	95	48.8	0	2	248	0.01	29.806 
00:10	50.2	50.2	50.2	95	48.8	0	1	248	0.00	29.806 
00:15	50.2	50.2	50.2	95	48.8	0	1	248	0.00	29.805 
00:20	50.4	50.4	50.4	95	49.0	0	1	248	0.00	29.805 
00:25	50.4	50.4	50.4	95	49.0	0	2	248	0.00	29.805 
00:30	50.4	50.4	50.4	95	49.0	0	2	248	0.00	29.804 
00:35	50.4	50.4	50.4	95	49.0	0	0	---	0.00	29.804 
00:40	50.4	50.4	50.4	95	49.0	0	1	248	0.01	29.804 
00:45	50.4	50.4	50.4	95	49.0	0	1	248	0.00	29.802 
00:50	50.4	50.4	50.4	95	49.0	0	1	248	0.01	29.802 
00:55	50.4	50.4	50.4	95	49.0	0	2	248	0.00	29.802 
01:00	50.4	50.4	50.4	95	49.0	0	0	---	0.00	29.800 
01:05	50.4	50.4	50.4	95	49.0	0	1	248	0.01	29.800 
01:10	50.4	50.4	50.4	95	49.0	0	1	248	0.00	29.800 
01:15	50.4	50.4	50.4	95	49.0	0	1	248	0.01	29.790 
01:20	50.4	50.4	50.4	95	49.0	0	1	248	0.01	29.790 
01:25	50.4	50.4	50.4	95	49.0	0	0	---	0.00	29.790 
01:30	50.4	50.4	50.4	95	49.0	0	1	248	0.01	29.788 
01:35	50.4	50.4	50.4	95	49.0	0	0	---	0.01	29.788 
01:40	50.4	50.4	50.4	95	49.0	0	1	248	0.00	29.788 
01:45	50.4	50.4	50.4	95	49.0	0	0	---	0.01	29.786 
01:50	50.4	50.4	50.4	95	49.0	0	0	---	0.01	29.786 
01:55	50.4	50.4	50.4	95	49.0	0	0	---	0.01	29.786 
02:00	50.4	50.4	50.4	95	49.0	0	1	248	0.01	29.777 
02:05	50.4	50.4	50.4	95	49.0	0	1	248	0.00	29.777 
02:10	50.4	50.4	50.4	95	49.0	0	0	---	0.00	29.777 
02:15	50.4	50.4	50.4	95	49.0	0	0	---	0.01	29.775 
02:20	50.4	50.4	50.4	95	49.0	0	0	---	0.00	29.775 
02:25	50.4	50.4	50.4	95	49.0	0	0	---	0.00	29.775 
02:30	50.4	50.4	50.4	95	49.0	0	1	248	0.00	29.774 
02:35	50.4	50.4	50.4	95	49.0	0	0	---	0.00	29.774 
02:40	50.4	50.4	50.4	95	49.0	0	0	---	0.01	29.774 
02:45	50.2	50.2	50.2	95	48.8	0	0	---	0.00	29.773 
02:50	50.2	50.2	50.2	95	48.8	0	0	---	0.01	29.773 
02:55	50.2	50.2	50.2	95	48.8	0	0	---	0.00	29.773 
03:00	50.4	50.4	50.4	95	49.0	0	0	---	0.00	29.767 
03:05	50.4	50.4	50.4	95	49.0	0	1	248	0.00	29.767 
03:10	50.2	50.2	50.2	95	48.8	0	1	248	0.00	29.767 
03:15	50.2	50.2	50.2	95	48.8	0	1	248	0.01	29.768 
03:20	50.2	50.2	50.2	95	48.8	0	1	248	0.00	29.768 
03:25	50.1	50.1	50.1	95	48.7	0	1	248	0.00	29.768 
03:30	50.1	50.1	50.1	95	48.7	0	1	248	0.01	29.767 
03:35	49.9	49.9	49.9	95	48.5	0	1	248	0.01	29.767 
03:40	49.9	49.9	49.9	95	48.5	0	1	248	0.00	29.767 
03:45	49.9	49.9	49.9	95	48.5	0	0	---	0.01	29.762 
03:50	49.9	49.9	49.9	95	48.5	0	0	---	0.01	29.762 
03:55	49.9	49.9	49.9	95	48.5	0	1	248	0.00	29.762 
04:00	49.8	49.8	49.8	95	48.4	0	1	248	0.01	29.761 
04:05	49.8	49.8	49.8	95	48.4	0	0	---	0.00	29.761 
04:10	49.8	49.8	49.8	95	48.4	0	0	---	0.00	29.761 
04:15	49.8	49.8	49.8	95	48.4	0	0	---	0.00	29.758 
04:20	49.8	49.8	49.8	95	48.4	0	0	---	0.00	29.758 
04:25	49.8	49.8	49.8	95	48.4	0	0	---	0.00	29.758 
04:30	49.8	49.8	49.8	95	48.4	0	1	248	0.00	29.757 
04:35	49.8	49.8	49.8	95	48.4	0	1	248	0.00	29.757 
04:40	49.8	49.8	49.8	95	48.4	0	1	248	0.00	29.757 
04:45	49.6	49.6	49.6	95	48.2	0	1	248	0.00	29.757 
04:50	49.6	49.6	49.6	95	48.2	0	1	248	0.00	29.757 
04:55	49.6	49.6	49.6	95	48.2	0	0	---	0.00	29.757 
05:00	49.6	49.6	49.6	95	48.2	0	0	---	0.00	29.757 
05:05	49.6	49.6	49.6	95	48.2	0	0	---	0.00	29.757 
05:10	49.6	49.6	49.6	95	48.2	0	0	---	0.01	29.757 
05:15	49.6	49.6	49.6	95	48.2	0	0	---	0.00	29.757 
05:20	49.5	49.5	49.5	95	48.1	0	0	---	0.00	29.757 
05:25	49.5	49.5	49.5	95	48.1	0	0	---	0.00	29.757 
05:30	49.5	49.5	49.5	95	48.1	0	0	---	0.00	29.760 
05:35	49.5	49.5	49.5	95	48.1	0	1	248	0.00	29.760 
05:40	49.5	49.5	49.5	95	48.1	0	0	---	0.00	29.760 
05:45	49.5	49.5	49.5	95	48.1	0	0	---	0.00	29.766 
05:50	49.5	49.5	49.5	95	48.1	0	0	---	0.00	29.766 
05:55	49.5	49.5	49.5	95	48.1	0	1	248	0.00	29.766 
06:00	49.5	49.5	49.5	95	48.1	0	1	248	0.01	29.766 
06:05	49.5	49.5	49.5	95	48.1	0	0	---	0.00	29.766 
06:10	49.5	49.5	49.5	95	48.1	0	0	---	0.00	29.766 
06:15	49.5	49.5	49.5	95	48.1	0	0	---	0.00	29.769 
06:20	49.5	49.5	49.5	95	48.1	0	0	---	0.00	29.769 
06:25	49.5	49.5	49.5	95	48.1	0	0	---	0.00	29.769 
06:30	49.5	49.5	49.5	95	48.1	0	1	248	0.00	29.770 
06:35	49.4	49.4	49.4	95	48.0	0	1	248	0.00	29.770 
06:40	49.4	49.4	49.4	95	48.0	0	1	248	0.00	29.770 
06:45	49.4	49.4	49.4	95	48.0	0	1	248	0.00	29.774 
06:50	49.5	49.5	49.5	95	48.1	0	0	---	0.00	29.774 
06:55	49.5	49.5	49.5	95	48.1	0	1	248	0.00	29.774 
07:00	49.4	49.4	49.4	95	48.0	0	1	248	0.00	29.773 
07:05	49.5	49.5	49.5	95	48.1	0	0	---	0.00	29.773 
07:10	49.5	49.5	49.5	96	48.4	0	0	---	0.00	29.773 
07:15	49.5	49.5	49.5	96	48.4	0	0	---	0.00	29.774 
07:20	49.5	49.5	49.5	96	48.4	0	0	---	0.00	29.774 
07:25	49.6	49.6	49.6	96	48.5	0	0	---	0.00	29.774 
07:30	49.6	49.6	49.6	96	48.5	0	1	248	0.00	29.775 
07:35	49.6	49.6	49.6	96	48.5	0	0	---	0.00	29.775 
07:40	49.6	49.6	49.6	96	48.5	0	1	248	0.00	29.775 
07:45	49.6	49.6	49.6	96	48.5	0	0	---	0.00	29.777 
07:50	49.6	49.6	49.6	96	48.5	0	0	---	0.00	29.777 
07:55	49.6	49.6	49.6	96	48.5	0	1	248	0.00	29.777 
08:00	49.8	49.8	49.8	96	48.7	0	1	248	0.00	29.786 
08:05	49.8	49.8	49.8	96	48.7	0	0	---	0.00	29.786 
08:10	49.9	49.9	49.9	96	48.8	0	1	248	0.00	29.786 
08:15	49.9	49.9	49.9	96	48.8	0	0	---	0.00	29.790 
08:20	50.1	50.1	50.1	96	49.0	0	0	---	0.00	29.790 
08:25	50.1	50.1	50.1	96	49.0	0	1	248	0.00	29.790 
08:30	50.2	50.2	50.2	96	49.1	0	1	248	0.00	29.792 
08:35	50.2	50.2	50.2	96	49.1	1	2	248	0.00	29.792 
08:40	50.2	50.2	50.2	96	49.1	0	2	248	0.00	29.792 
08:45	50.4	50.4	50.4	95	49.0	0	0	---	0.00	29.797 
08:50	50.4	50.4	50.4	95	49.0	0	2	248	0.00	29.797 
08:55	50.5	50.5	50.5	95	49.1	0	1	248	0.00	29.797 
09:00	50.5	50.5	50.5	95	49.1	0	1	248	0.00	29.799 
09:05	50.5	50.5	50.5	95	49.1	0	2	248	0.00	29.799 
09:10	50.5	50.5	50.5	95	49.1	0	2	248	0.00	29.799 
09:15	50.5	50.5	50.5	95	49.1	0	1	248	0.00	29.804 
09:20	50.5	50.5	50.5	95	49.1	0	2	248	0.00	29.804 
09:25	50.5	50.5	50.5	94	48.8	0	2	248	0.00	29.804 
09:30	50.5	50.5	50.5	95	49.1	0	1	248	0.00	29.805 
09:35	50.5	50.5	50.5	94	48.8	0	2	248	0.00	29.805 
09:40	50.5	50.5	50.5	94	48.8	0	2	248	0.00	29.805 
09:45	50.5	50.5	50.5	94	48.8	0	1	248	0.00	29.806 
09:50	50.7	50.7	50.7	94	49.0	0	1	248	0.00	29.806 
09:55	50.7	50.7	50.7	94	49.0	0	2	248	0.00	29.806 
10:00	50.7	50.7	50.7	94	49.0	0	2	248	0.00	29.811 
10:05	50.7	50.7	50.7	94	49.0	0	1	248	0.00	29.811 
10:10	50.8	50.8	50.8	94	49.1	0	1	225	0.00	29.811 
10:15	50.8	50.8	50.8	94	49.1	0	2	225	0.00	29.814 
10:20	51.0	51.0	51.0	94	49.3	0	1	225	0.00	29.814 
10:25	51.1	51.1	51.1	94	49.4	0	2	225	0.00	29.814 
10:30	51.3	51.3	51.3	94	49.6	0	1	158	0.00	29.817 
10:35	51.4	51.4	51.4	93	49.4	0	1	158	0.00	29.817 
10:40	51.6	51.6	51.6	93	49.6	0	1	158	0.00	29.817 
10:45	52.0	52.0	52.0	93	50.0	0	1	158	0.00	29.809 
10:50	52.6	52.6	52.6	92	50.3	1	2	158	0.00	29.809 
10:55	52.9	52.9	52.9	89	49.7	1	3	112	0.00	29.809 
11:00	53.3	53.3	53.3	88	49.8	1	4	90	0.00	29.812 
11:05	53.6	53.6	53.6	86	49.5	0	1	90	0.00	29.812 
11:10	53.9	53.9	53.9	86	49.8	1	3	90	0.00	29.812 
11:15	54.1	54.1	54.1	84	49.4	1	3	90	0.00	29.814 
11:20	54.1	54.1	54.1	84	49.4	1	3	90	0.00	29.814 
11:25	54.1	54.1	54.1	85	49.7	1	2	90	0.00	29.814 
11:30	54.2	54.2	54.2	84	49.5	0	2	90	0.00	29.818 
11:35	54.2	54.2	54.2	84	49.5	0	2	90	0.00	29.818 
11:40	54.4	54.4	54.4	82	49.0	1	2	90	0.00	29.818 
11:45	54.5	54.5	54.5	84	49.8	0	2	90	0.00	29.819 
11:50	54.8	54.8	54.8	82	49.4	0	1	90	0.00	29.819 
11:55	55.0	55.0	55.0	78	48.3	0	1	90	0.00	29.819 
12:00	55.0	55.0	55.0	80	48.9	0	2	90	0.00	29.820 
12:05	54.8	54.8	54.8	79	48.4	0	1	90	0.00	29.820 
12:10	55.0	55.0	55.0	80	48.9	0	1	90	0.00	29.820 
12:15	54.8	54.8	54.8	80	48.7	0	1	90	0.00	29.820 
12:20	54.8	54.8	54.8	80	48.7	0	1	90	0.00	29.820 
12:25	54.7	54.7	54.7	80	48.7	1	2	90	0.00	29.820 
12:30	54.5	54.5	54.5	79	48.1	0	1	90	0.00	29.820 
12:35	54.5	54.5	54.5	81	48.8	0	0	---	0.00	29.820 
12:40	54.5	54.5	54.5	80	48.5	0	0	---	0.00	29.820 
12:45	54.5	54.5	54.5	81	48.8	0	0	---	0.00	29.819 
12:50	54.4	54.4	54.4	82	49.0	0	0	---	0.00	29.819 
12:55	54.2	54.2	54.2	81	48.5	0	2	90	0.00	29.819 
13:00	54.1	54.1	54.1	82	48.7	0	1	90	0.00	29.819 
13:05	53.9	53.9	53.9	81	48.2	0	1	90	0.00	29.819 
13:10	53.9	53.9	53.9	82	48.5	0	0	---	0.00	29.819 
13:15	53.9	53.9	53.9	83	48.9	0	0	---	0.00	29.817 
13:20	53.9	53.9	53.9	83	48.9	0	0	---	0.00	29.817 
13:25	53.8	53.8	53.8	84	49.1	0	0	---	0.00	29.817 
13:30	53.8	53.8	53.8	83	48.8	0	0	---	0.00	29.814 
13:35	53.8	53.8	53.8	84	49.1	0	0	---	0.00	29.814 
13:40	53.8	53.8	53.8	85	49.4	0	0	---	0.00	29.814 
13:45	53.8	53.8	53.8	84	49.1	0	0	---	0.00	29.815 
13:50	53.8	53.8	53.8	85	49.4	0	0	---	0.00	29.815 
13:55	53.6	53.6	53.6	85	49.2	0	0	---	0.00	29.815 
14:00	53.6	53.6	53.6	85	49.2	0	0	---	0.00	29.812 
14:05	53.6	53.6	53.6	86	49.5	0	0	---	0.00	29.812 
14:10	53.5	53.5	53.5	87	49.7	0	0	---	0.00	29.812 
14:15	53.3	53.3	53.3	87	49.5	0	1	90	0.00	29.812 
14:20	53.3	53.3	53.3	88	49.8	0	0	---	0.00	29.812 
14:25	53.2	53.2	53.2	89	50.0	0	1	90	0.00	29.812 
14:30	53.1	53.1	53.1	89	49.9	0	1	90	0.00	29.813 
14:35	53.1	53.1	53.1	89	49.9	0	1	90	0.00	29.813 
14:40	53.1	53.1	53.1	89	49.9	0	0	---	0.00	29.813 
14:45	52.9	52.9	52.9	89	49.7	0	1	112	0.00	29.809 
14:50	52.9	52.9	52.9	88	49.4	0	1	112	0.00	29.809 
14:55	53.1	53.1	53.1	89	49.9	0	1	112	0.00	29.809 
15:00	53.3	53.3	53.3	89	50.1	0	1	112	0.00	29.807 
15:05	53.5	53.5	53.5	89	50.3	0	1	112	0.00	29.807 
15:10	53.6	53.6	53.6	88	50.1	0	1	112	0.00	29.807 
15:15	53.8	53.8	53.8	87	50.0	0	0	---	0.00	29.807 
15:20	53.9	53.9	53.9	86	49.8	0	0	---	0.00	29.807 
15:25	54.1	54.1	54.1	85	49.7	0	1	112	0.00	29.807 
15:30	54.2	54.2	54.2	85	49.8	0	1	112	0.00	29.807 
15:35	54.2	54.2	54.2	85	49.8	0	1	112	0.00	29.807 
15:40	54.4	54.4	54.4	85	50.0	0	1	112	0.00	29.807 
15:45	54.5	54.5	54.5	84	49.8	0	1	112	0.00	29.804 
15:50	54.8	54.8	54.8	84	50.1	0	0	---	0.00	29.804 
15:55	55.0	55.0	55.0	81	49.3	0	2	202	0.00	29.804 
16:00	55.1	55.1	55.1	83	50.0	0	1	202	0.00	29.803 
16:05	55.3	55.3	55.3	83	50.2	0	1	202	0.00	29.803 
16:10	55.3	55.3	55.3	81	49.6	0	1	202	0.00	29.803 
16:15	55.3	55.3	55.3	78	48.6	0	1	202	0.00	29.801 
16:20	55.6	55.6	55.6	79	49.2	0	1	202	0.00	29.801 
16:25	55.7	55.7	55.7	79	49.3	0	2	202	0.00	29.801 
16:30	55.9	55.9	55.9	79	49.5	1	2	248	0.00	29.799 
16:35	55.9	55.9	55.9	80	49.8	0	1	248	0.00	29.799 
16:40	56.0	56.0	56.0	79	49.6	0	1	248	0.00	29.799 
16:45	55.9	55.9	55.9	79	49.5	0	2	248	0.00	29.799 
16:50	55.7	55.7	55.7	80	49.6	0	1	248	0.00	29.799 
16:55	55.7	55.7	55.7	78	48.9	0	1	248	0.00	29.799 
17:00	55.6	55.6	55.6	78	48.8	0	1	248	0.00	29.798 
17:05	55.7	55.7	55.7	77	48.6	0	1	248	0.00	29.798 
17:10	55.9	55.9	55.9	78	49.1	0	1	248	0.00	29.798 
17:15	56.0	56.0	56.0	77	48.9	0	2	248	0.00	29.799 
17:20	55.9	55.9	55.9	76	48.4	1	3	248	0.00	29.799 
17:25	55.7	55.7	55.7	79	49.3	1	3	248	0.00	29.799 
17:30	55.6	55.6	55.6	81	49.9	0	2	248	0.00	29.800 
17:35	55.3	55.3	55.3	82	49.9	1	2	248	0.00	29.800 
17:40	55.1	55.1	55.1	82	49.7	1	2	248	0.00	29.800 
17:45	55.0	55.0	55.0	82	49.6	0	2	248	0.00	29.803 
17:50	55.0	55.0	55.0	83	49.9	0	1	248	0.00	29.803 
17:55	54.8	54.8	54.8	82	49.4	1	2	248	0.00	29.803 
18:00	54.8	54.8	54.8	83	49.7	0	2	248	0.00	29.804 
18:05	54.8	54.8	54.8	83	49.7	1	2	248	0.00	29.804 
18:10	54.4	54.4	54.4	85	50.0	1	3	248	0.00	29.804 
18:15	53.9	53.9	53.9	86	49.8	1	5	248	0.00	29.806 
18:20	53.8	53.8	53.8	88	50.3	0	2	270	0.00	29.806 
18:25	53.6	53.6	53.6	88	50.1	0	2	270	0.00	29.806 
18:30	53.5	53.5	53.5	89	50.3	0	1	270	0.00	29.805 
18:35	53.5	53.5	53.5	89	50.3	0	2	270	0.00	29.805 
18:40	53.5	53.5	53.5	90	50.6	0	2	270	0.00	29.805 
18:45	53.3	53.3	53.3	90	50.4	0	1	270	0.00	29.804 
18:50	53.3	53.3	53.3	90	50.4	0	1	270	0.00	29.804 
18:55	53.3	53.3	53.3	91	50.7	0	2	270	0.00	29.804 
19:00	53.2	53.2	53.2	91	50.6	0	1	270	0.00	29.801 
19:05	53.2	53.2	53.2	91	50.6	0	1	270	0.00	29.801 
19:10	53.2	53.2	53.2	92	50.9	0	1	270	0.00	29.801 
19:15	53.1	53.1	53.1	92	50.8	0	1	270	0.00	29.800 
19:20	53.1	53.1	53.1	92	50.8	0	1	270	0.00	29.800 
19:25	53.1	53.1	53.1	92	50.8	0	3	270	0.00	29.800 
19:30	53.1	53.1	53.1	92	50.8	0	1	270	0.00	29.799 
19:35	52.9	52.9	52.9	91	50.3	0	2	270	0.00	29.799 
19:40	52.9	52.9	52.9	91	50.3	0	2	270	0.00	29.799 
19:45	52.9	52.9	52.9	91	50.3	0	1	270	0.00	29.798 
19:50	53.1	53.1	53.1	91	50.5	0	1	270	0.00	29.798 
19:55	53.1	53.1	53.1	91	50.5	0	1	270	0.00	29.798 
20:00	53.1	53.1	53.1	91	50.5	0	0	---	0.00	29.800 
20:05	53.2	53.2	53.2	90	50.3	0	1	270	0.00	29.800 
20:10	53.2	53.2	53.2	90	50.3	0	1	270	0.00	29.800 
20:15	53.2	53.2	53.2	90	50.3	0	1	270	0.00	29.800 
20:20	53.2	53.2	53.2	89	50.0	0	1	270	0.00	29.800 
20:25	53.2	53.2	53.2	89	50.0	0	1	270	0.00	29.800 
20:30	53.2	53.2	53.2	89	50.0	0	0	---	0.00	29.799 
20:35	53.1	53.1	53.1	89	49.9	0	1	270	0.00	29.799 
20:40	53.1	53.1	53.1	89	49.9	0	1	270	0.00	29.799 
20:45	53.1	53.1	53.1	90	50.2	0	1	270	0.00	29.791 
20:50	52.9	52.9	52.9	90	50.0	0	0	---	0.00	29.791 
20:55	52.9	52.9	52.9	90	50.0	0	0	---	0.00	29.791 
21:00	52.9	52.9	52.9	90	50.0	0	0	---	0.00	29.794 
21:05	52.9	52.9	52.9	91	50.3	0	0	---	0.00	29.794 
21:10	52.9	52.9	52.9	91	50.3	0	0	---	0.00	29.794 
21:15	52.9	52.9	52.9	91	50.3	0	0	---	0.00	29.793 
21:20	52.9	52.9	52.9	91	50.3	0	0	---	0.00	29.793 
21:25	52.9	52.9	52.9	92	50.6	0	0	---	0.00	29.793 
21:30	53.1	53.1	53.1	92	50.8	0	0	---	0.00	29.791 
21:35	53.1	53.1	53.1	92	50.8	0	1	270	0.00	29.791 
21:40	53.1	53.1	53.1	92	50.8	0	0	---	0.00	29.791 
21:45	53.1	53.1	53.1	92	50.8	0	0	---	0.00	29.793 
21:50	53.1	53.1	53.1	92	50.8	0	0	---	0.00	29.793 
21:55	53.1	53.1	53.1	92	50.8	0	1	270	0.00	29.793 
22:00	53.2	53.2	53.2	92	50.9	0	0	---	0.00	29.794 
22:05	53.2	53.2	53.2	92	50.9	0	0	---	0.00	29.794 
22:10	53.2	53.2	53.2	92	50.9	0	0	---	0.00	29.794 
22:15	53.2	53.2	53.2	92	50.9	0	0	---	0.00	29.794 
22:20	53.2	53.2	53.2	92	50.9	0	0	---	0.00	29.794 
22:25	53.2	53.2	53.2	92	50.9	0	0	---	0.00	29.794 
22:30	53.2	53.2	53.2	92	50.9	0	0	---	0.00	29.794 
22:35	53.1	53.1	53.1	92	50.8	0	0	---	0.00	29.794 
22:40	53.1	53.1	53.1	92	50.8	0	0	---	0.00	29.794 
22:45	52.9	52.9	52.9	92	50.6	0	0	---	0.00	29.789 
22:50	52.8	52.8	52.8	92	50.5	0	1	270	0.00	29.789 
22:55	52.8	52.8	52.8	93	50.8	0	1	270	0.00	29.789 
23:00	52.8	52.8	52.8	93	50.8	0	1	270	0.00	29.785 
23:05	52.8	52.8	52.8	93	50.8	0	1	270	0.00	29.785 
23:10	52.6	52.6	52.6	93	50.6	0	1	270	0.00	29.785 
23:15	52.6	52.6	52.6	93	50.6	0	1	270	0.00	29.783 
23:20	52.6	52.6	52.6	93	50.6	0	1	270	0.00	29.783 
23:25	52.6	52.6	52.6	93	50.6	0	0	---	0.00	29.783 
23:30	52.6	52.6	52.6	93	50.6	0	1	270	0.00	29.778 
23:35	52.6	52.6	52.6	94	50.9	0	1	270	0.00	29.778 
23:40	52.6	52.6	52.6	94	50.9	0	1	270	0.00	29.778 
23:45	52.6	52.6	52.6	94	50.9	0	0	---	0.00	29.778 
23:50	52.5	52.5	52.5	94	50.8	0	0	---	0.00	29.778 
23:55	52.6	52.6	52.6	94	50.9	0	2	270	0.00	29.778 

CoCoRaHS
IN-AL-39
A2 Web Hosting
Creative Commons License
GoDaddy
Look for:

loaded 2017-12-13 02:22:28 • last modified 2010-11-18 10:43:29
Privacy PolicyDisclaimer
• wx.awcolley.com is powered by PmWiki v.2002016 •
• all content (unless otherwise noted) © 2017 A W Colley